Date String (YYYY-MM-DD hh:mm:ss) UTC,Instrument flags,Ambient pressure (hPa),Sample flow (lpm),Bypass flow (lpm),Sample temperature (°C),Ambient temperature (°C),ASC tube jacket temperature (°C),LED temperature (°C),Box temperature (°C),Sample RH (%),Span deviation,Mass concentration (μg/m³),Mass concentration (μg/m³),Mass concentration (μg/m³)
DateTimeUTC,F1_M11,P_M11,Q1_M11,Q2_M11,T1_M11,T2_M11,T3_M11,T4_M11,T5_M11,U1_M11,ZSPAN_M11,X0_M11,X2_M11,X1_M11
2023-01-26 06:00:00,,0829.9,4.99,0.00,22.3,20.5,00.0,31.2,24.0,05.2,0000.0,0001.41,0000.96,0000.83
2023-01-26 06:01:00,,0829.9,5.00,0.00,22.3,20.8,00.0,31.2,24.1,05.3,0000.0,0001.51,0001.00,0000.86
2023-01-26 06:02:00,,0829.9,5.00,0.00,22.4,21.8,00.0,31.2,24.2,05.3,0000.0,0001.60,0001.04,0000.90
2023-01-26 06:03:00,,0829.9,5.00,0.00,22.5,22.7,00.0,31.2,24.4,05.4,0000.0,0002.09,0001.08,0000.95
2023-01-26 06:04:00,,0829.9,4.99,0.00,22.6,22.7,00.0,31.2,24.6,05.4,0000.0,0003.00,0001.12,0000.99
2023-01-26 06:05:00,,0829.9,5.01,0.00,22.6,22.3,00.0,31.2,24.5,05.4,0000.0,0003.03,0001.16,0001.02
2023-01-26 06:06:00,,0829.9,5.01,0.00,22.6,21.9,00.0,31.3,24.4,05.4,0000.0,0003.08,0001.19,0001.04
2023-01-26 06:07:00,,0829.9,5.01,0.00,22.6,21.6,00.0,31.3,24.3,05.2,0000.0,0003.03,0001.18,0001.05
2023-01-26 06:08:00,,0830.0,5.00,0.00,22.5,21.4,00.0,31.3,24.3,05.1,0000.0,0002.99,0001.17,0001.04
2023-01-26 06:09:00,,0830.0,4.98,0.00,22.5,21.2,00.0,31.3,24.3,05.1,0000.0,0002.96,0001.16,0001.04
2023-01-26 06:10:00,,0830.0,4.99,0.00,22.5,21.0,00.0,31.3,24.2,05.1,0000.0,0002.94,0001.15,0001.02
2023-01-26 06:11:00,,0830.1,5.00,0.00,22.5,20.9,00.0,31.3,24.2,05.0,0000.0,0002.92,0001.12,0000.98
2023-01-26 06:12:00,,0830.1,5.01,0.00,22.4,20.8,00.0,31.3,24.1,05.2,0000.0,0002.81,0001.06,0000.94
2023-01-26 06:13:00,,0830.1,5.00,0.00,22.4,20.7,00.0,31.2,24.1,05.3,0000.0,0002.73,0001.03,0000.89
2023-01-26 06:14:00,,0830.1,5.01,0.00,22.4,20.7,00.0,31.2,24.1,05.2,0000.0,0002.53,0000.99,0000.85
2023-01-26 06:15:00,,0830.1,5.01,0.00,22.3,20.6,00.0,31.2,24.0,05.3,0000.0,0001.54,0000.96,0000.80
2023-01-26 06:16:00,,0830.1,5.00,0.00,22.3,20.5,00.0,31.2,23.9,05.4,0000.0,0002.12,0000.96,0000.80
2023-01-26 06:17:00,,0830.1,4.99,0.00,22.3,20.5,00.0,31.2,23.9,05.3,0000.0,0002.18,0000.96,0000.80
2023-01-26 06:18:00,,0830.1,5.00,0.00,22.2,20.4,00.0,31.2,23.9,05.2,0000.0,0002.17,0000.94,0000.79
2023-01-26 06:19:00,,0830.1,5.02,0.00,22.2,20.6,00.0,31.1,23.9,05.1,0000.0,0002.24,0000.97,0000.78
2023-01-26 06:20:00,,0830.1,4.98,0.00,22.3,21.5,00.0,31.1,24.1,05.0,0000.0,0002.25,0000.96,0000.78
2023-01-26 06:21:00,,0830.1,5.00,0.00,22.4,22.5,00.0,31.1,24.3,05.1,0000.0,0002.26,0000.97,0000.79
2023-01-26 06:22:00,,0830.1,4.99,0.00,22.5,22.7,00.0,31.1,24.5,05.1,0000.0,0002.30,0000.99,0000.81
2023-01-26 06:23:00,,0830.1,5.01,0.00,22.5,22.2,00.0,31.2,24.4,05.1,0000.0,0002.30,0000.99,0000.82
2023-01-26 06:24:00,,0830.1,5.00,0.00,22.5,21.8,00.0,31.2,24.3,04.9,0000.0,0002.22,0000.97,0000.81
2023-01-26 06:25:00,,0830.1,5.00,0.00,22.5,21.4,00.0,31.2,24.2,04.9,0000.0,0002.22,0000.98,0000.81
2023-01-26 06:26:00,,0830.0,4.98,0.00,22.4,21.1,00.0,31.2,24.2,04.9,0000.0,0002.07,0000.97,0000.80
2023-01-26 06:27:00,,0830.0,5.01,0.00,22.4,21.0,00.0,31.2,24.1,04.9,0000.0,0001.51,0000.93,0000.76
2023-01-26 06:28:00,,0830.0,5.00,0.00,22.4,20.9,00.0,31.2,24.0,05.0,0000.0,0001.39,0000.89,0000.74
2023-01-26 06:29:00,,0830.0,4.99,0.00,22.3,20.7,00.0,31.2,24.0,04.9,0000.0,0001.34,0000.87,0000.72
2023-01-26 06:30:00,,0830.0,4.98,0.00,22.3,20.6,00.0,31.2,24.0,04.9,0000.0,0001.28,0000.85,0000.71
2023-01-26 06:31:00,,0829.9,4.96,0.00,22.3,20.5,00.0,31.1,23.9,04.9,0000.0,0001.30,0000.86,0000.71
2023-01-26 06:32:00,,0829.9,5.00,0.00,22.2,20.5,00.0,31.1,23.9,04.9,0000.0,0001.27,0000.84,0000.69
2023-01-26 06:33:00,,0829.9,5.01,0.00,22.2,20.5,00.0,31.1,23.8,04.9,0000.0,0001.20,0000.80,0000.67
2023-01-26 06:34:00,,0829.9,4.99,0.00,22.2,20.4,00.0,31.1,23.8,04.8,0000.0,0001.21,0000.80,0000.66
2023-01-26 06:35:00,,0830.0,5.00,0.00,22.2,21.1,00.0,31.0,23.9,04.8,0000.0,0001.23,0000.79,0000.64
2023-01-26 06:36:00,,0830.0,5.01,0.00,22.3,22.0,00.0,31.0,24.1,04.8,0000.0,0001.18,0000.76,0000.63
2023-01-26 06:37:00,,0830.0,4.99,0.00,22.4,22.6,00.0,31.1,24.3,04.7,0000.0,0001.11,0000.73,0000.62
2023-01-26 06:38:00,,0830.0,5.00,0.00,22.4,22.3,00.0,31.1,24.3,04.7,0000.0,0001.03,0000.72,0000.61
2023-01-26 06:39:00,,0829.9,5.00,0.00,22.4,21.8,00.0,31.1,24.2,04.7,0000.0,0001.01,0000.69,0000.59
2023-01-26 06:40:00,,0829.9,5.00,0.00,22.4,21.4,00.0,31.1,24.1,04.8,0000.0,0000.99,0000.68,0000.58
2023-01-26 06:41:00,,0829.9,4.99,0.00,22.3,21.2,00.0,31.1,24.1,04.8,0000.0,0000.96,0000.66,0000.57
2023-01-26 06:42:00,,0829.9,5.00,0.00,22.3,21.0,00.0,31.1,24.0,04.8,0000.0,0000.91,0000.63,0000.56
2023-01-26 06:43:00,,0829.9,5.00,0.00,22.3,20.8,00.0,31.1,23.9,04.8,0000.0,0000.88,0000.62,0000.56
2023-01-26 06:44:00,,0829.8,5.01,0.00,22.2,20.7,00.0,31.1,23.9,04.7,0000.0,0000.87,0000.62,0000.56
2023-01-26 06:45:00,,0829.9,4.99,0.00,22.2,20.6,00.0,31.1,23.9,04.8,0000.0,0000.85,0000.61,0000.57
2023-01-26 06:46:00,,0829.8,4.98,0.00,22.2,20.5,00.0,31.1,23.8,04.8,0000.0,0000.85,0000.63,0000.59
2023-01-26 06:47:00,,0829.9,5.00,0.00,22.1,20.4,00.0,31.0,23.8,04.9,0000.0,0000.93,0000.68,0000.64
2023-01-26 06:48:00,,0829.9,4.98,0.00,22.1,20.3,00.0,31.0,23.7,04.9,0000.0,0001.17,0000.72,0000.66
2023-01-26 06:49:00,,0829.8,5.00,0.00,22.1,20.6,00.0,31.0,23.7,04.9,0000.0,0001.36,0000.75,0000.69
2023-01-26 06:50:00,,0829.8,5.00,0.00,22.2,21.6,00.0,31.0,24.0,04.9,0000.0,0001.39,0000.77,0000.72
2023-01-26 06:51:00,,0829.8,5.00,0.00,22.3,22.5,00.0,31.0,24.2,04.9,0000.0,0001.43,0000.79,0000.74
2023-01-26 06:52:00,,0829.8,4.99,0.00,22.3,22.5,00.0,31.0,24.3,04.8,0000.0,0001.51,0000.84,0000.76
2023-01-26 06:53:00,,0829.8,4.99,0.00,22.4,22.0,00.0,31.1,24.2,04.8,0000.0,0001.55,0000.86,0000.78
2023-01-26 06:54:00,,0829.7,5.03,0.00,22.3,21.5,00.0,31.1,24.1,04.8,0000.0,0001.57,0000.87,0000.79
2023-01-26 06:55:00,,0829.8,4.99,0.00,22.3,21.2,00.0,31.1,24.0,04.7,0000.0,0001.60,0000.89,0000.79
2023-01-26 06:56:00,,0829.8,4.99,0.00,22.3,21.0,00.0,31.1,24.0,04.7,0000.0,0001.61,0000.90,0000.80
2023-01-26 06:57:00,,0829.8,5.01,0.00,22.2,20.8,00.0,31.0,23.9,04.7,0000.0,0001.60,0000.89,0000.79
2023-01-26 06:58:00,,0829.7,4.96,0.00,22.2,20.6,00.0,31.0,23.9,04.8,0000.0,0001.52,0000.84,0000.75
2023-01-26 06:59:00,,0829.7,4.98,0.00,22.2,20.5,00.0,31.0,23.8,04.8,0000.0,0001.35,0000.82,0000.73
